Regional Weather Roundup
Issued by NWS Nashville, TN

Home | Current Version | Previous Version | Text Only | Print | Product List | Glossary On
Versions: 1 2 3 4 5 6 7 8 9 10 11 12 13 14 15 16 17 18 19 20 21 22 23 24 25 26 27 28
000
ASUS44 KOHX 300310
RWROHX
MIDDLE TENNESSEE HOURLY WEATHER ROUNDUP
NATIONAL WEATHER SERVICE NASHVILLE TN
1000 PM CDT SUN MAY 29 2016

NOTE: "FAIR" INDICATES FEW OR NO CLOUDS BELOW 12,000 FEET WITH
NO SIGNIFICANT WEATHER AND/OR OBSTRUCTIONS TO VISIBILITY.

* THESE REPORTS ARE NOT UNDER NWS QUALITY CONTROL AND MAY NOT
  REPORT WEATHER SUCH AS PRECIPITATION AND FOG.


TNZ005>011-023>034-057-059-062>066-078-080-300400
...NORTHERN MIDDLE TENNESSEE...

CITY           SKY/WX    TMP DP  RH WIND       PRES   REMARKS
CLARKSVILLE    CLOUDY    73  65  75 CALM      30.05R
CROSSVILLE     CLEAR     68  63  84 CALM      30.12R
DICKSON        CLOUDY    72  70  94 CALM      30.05F
LEBANON        CLEAR     73  67  81 CALM      30.03S
NASHVILLE      PTCLDY    75  65  70 CALM      30.05R
SMYRNA         CLEAR     74  66  75 CALM      30.06R
SPARTA         CLEAR     68  66  94 CALM      30.06S
$$
TNZ056-058-060-061-075>077-079-093>097-300400
...SOUTHERN MIDDLE TENNESSEE...

CITY           SKY/WX    TMP DP  RH WIND       PRES   REMARKS
COLUMBIA       CLEAR    N/A N/A N/A CALM      30.05R
FAYETTEVILLE   CLEAR     73  66  78 CALM      30.07R
LEWISBURG      CLEAR     70  65  84 CALM      30.06R
MCMINNVILLE    PTCLDY    73  70  88 CALM      30.07R
SHELBYVILLE    CLEAR     73  66  78 CALM      30.07R
TULLAHOMA      CLEAR     70  70 100 CALM      30.08R
WINCHESTER     PTCLDY    73  64  73 CALM      30.07R
$$


...KEY TO REMARKS...
VSB - VISIBILITY IN MILES
WCI - WIND CHILL INDEX
HX  - HEAT INDEX





USA.gov is the U.S. government's official web portal to all federal, state and local government web resources and services.